Theta_e
334 333 334 332 333 332 333 334 335 334 332 331 332 331 330 330 331 329 329 330 328 328 327 326 326 325 327 329 328 329 330 329 328 328 329 328 328 328 327 327 327 326 324
332 333 333 334 333 333 333 333 334 334 333 332 330 330 330 329 330 330 331 331 330 327 327 327 326 328 330 328 328 329 329 328 328 326 326 326 326 325 325 322 323 323 319
333 333 333 333 334 333 333 333 332 333 332 331 330 330 330 330 329 330 330 330 329 326 327 326 328 329 330 328 326 328 327 327 325 327 326 325 323 323 323 322 321 321 321
334 333 334 333 334 333 333 333 333 332 332 331 331 330 330 329 330 331 331 330 328 328 328 330 327 329 328 328 327 327 326 325 325 326 324 324 324 323 322 321 320 319 317
333 333 332 332 333 333 333 333 333 332 331 330 331 331 331 331 331 330 331 331 331 332 331 330 329 330 328 328 329 327 326 325 325 325 324 323 322 322 321 320 318 317 316
335 333 331 330 333 333 333 332 333 332 332 330 331 329 330 330 330 330 330 328 330 329 329 330 330 330 330 330 329 328 326 325 324 323 322 322 320 319 319 318 317 317 316
334 333 332 331 330 333 333 331 332 332 331 330 331 331 329 329 330 329 329 329 328 328 330 331 329 330 330 329 327 326 325 324 323 323 322 320 320 320 320 318 317 317 316
334 333 332 330 329 333 333 332 331 331 330 329 331 328 326 327 329 329 328 327 329 331 330 330 329 329 328 327 326 325 324 324 323 323 323 321 322 320 320 320 318 316 315
332 334 332 330 332 332 332 333 332 331 331 331 329 326 325 326 329 330 329 329 330 329 329 330 329 328 328 326 325 324 324 324 324 323 323 323 323 323 322 319 317 316 316
330 332 332 330 332 332 332 332 330 329 331 329 327 325 325 327 328 329 327 327 327 325 325 325 326 327 328 326 325 324 323 324 324 323 322 323 323 323 321 319 318 318 319
330 330 332 331 331 331 332 332 331 330 330 329 327 325 326 327 327 327 326 326 325 323 324 324 324 325 325 325 325 324 324 324 324 323 323 321 321 320 320 323 321 319 320
330 330 332 329 329 331 332 332 330 331 330 328 328 326 326 326 327 327 327 326 325 324 325 325 325 326 325 325 325 325 324 325 324 323 322 321 322 321 322 323 322 325 321
330 332 331 330 329 329 331 333 331 329 329 329 328 327 327 325 326 326 326 326 325 323 325 325 325 326 326 326 326 325 325 325 324 324 324 324 324 323 322 323 325 324 324
329 332 333 332 330 328 332 332 331 329 329 329 328 327 327 325 326 325 326 325 325 322 322 324 324 325 327 326 325 325 325 325 325 325 324 324 325 325 321 322 324 324 322
330 334 334 333 331 329 328 332 332 329 329 329 329 328 327 326 326 325 326 324 324 324 321 322 322 324 326 326 326 326 326 326 326 326 325 325 326 327 326 327 327 325 321
330 331 334 333 333 331 329 327 328 333 331 330 330 328 327 327 326 325 326 326 326 322 321 322 322 323 325 325 326 325 327 326 326 326 326 327 328 327 327 327 326 323 320
330 330 331 333 334 332 329 326 320 321 331 332 330 330 328 327 326 324 324 328 327 323 322 325 324 322 322 324 324 324 325 327 327 327 327 327 326 325 326 325 323 321 318
330 330 329 330 331 333 330 327 323 320 320 326 332 331 330 328 327 326 325 328 328 326 326 325 327 324 320 321 322 323 325 326 325 325 324 325 325 325 323 322 321 319 318
328 329 328 329 329 330 333 331 327 324 320 320 327 331 330 329 328 327 326 327 327 327 328 329 328 328 326 323 321 321 323 324 325 324 323 323 322 320 318 318 318 318 317
329 328 328 327 328 327 331 332 331 329 327 322 320 325 328 328 327 327 327 327 327 327 327 328 329 330 328 327 325 324 323 324 324 323 323 322 322 320 317 317 318 318 319
329 329 328 328 327 327 326 329 329 330 329 327 323 321 322 328 326 325 325 326 327 328 328 328 328 330 330 330 330 324 324 324 325 325 324 323 324 322 320 319 320 320 319
330 328 328 329 327 327 325 327 328 328 330 329 326 324 321 324 326 326 326 326 326 327 328 328 328 328 328 329 328 326 325 324 323 324 324 323 322 322 322 322 322 321 321
331 329 328 327 329 327 327 325 327 326 326 329 328 325 322 322 322 323 323 323 325 326 328 329 330 329 329 328 328 326 326 325 324 322 322 323 323 322 322 322 323 323 322
330 330 329 328 327 328 329 326 326 326 326 325 326 325 324 322 320 320 320 320 320 320 320 325 328 326 324 325 325 323 322 322 324 323 323 323 323 323 323 323 323 323 323
331 332 330 329 328 327 327 328 326 326 326 326 325 324 324 323 322 321 320 320 319 318 318 317 315 318 324 323 321 322 322 321 321 321 323 323 323 323 323 322 323 322 322
331 332 333 332 330 329 327 328 328 327 326 325 325 325 324 323 323 324 323 321 321 321 321 321 321 321 321 321 318 317 320 323 323 321 321 321 322 322 323 323 322 322 321
Wind_Speed
18 15 13 11 7 5 6 5 4 5 8 9 9 10 10 10 9 5 5 6 8 6 3 2 0 1 2 6 12 13 10 20 10 10 17 23 28 32 36 45 48 48 45
17 16 13 11 10 8 7 6 5 6 9 10 8 8 9 10 8 5 4 8 6 3 4 3 4 5 9 14 17 16 19 24 27 17 18 18 28 36 41 38 41 44 38
20 16 14 13 10 9 7 7 6 8 10 11 10 9 9 9 7 5 6 5 5 5 5 8 7 9 18 17 17 20 23 27 23 23 17 21 28 35 36 37 35 37 33
23 21 16 12 11 9 8 7 7 9 11 12 11 9 11 8 8 7 6 7 8 7 6 4 10 10 16 15 14 16 22 24 23 22 23 26 26 33 36 40 32 35 35
24 23 16 12 10 10 9 8 9 12 11 13 11 8 8 10 11 10 9 9 14 13 12 10 11 11 12 11 16 19 22 22 22 22 21 23 24 28 30 31 32 33 29
26 24 21 15 15 13 11 10 11 13 14 15 11 14 13 11 11 12 10 10 11 10 11 11 10 5 13 12 14 19 24 27 22 22 26 26 21 27 32 32 35 29 10
25 23 22 18 12 14 13 12 13 14 14 14 13 12 12 12 12 11 9 9 9 9 10 12 13 13 16 18 18 23 25 26 28 31 29 29 31 38 39 29 26 23 13
27 23 24 18 14 18 15 16 14 16 14 13 12 11 12 13 12 11 9 10 11 11 11 12 14 15 19 21 22 26 27 28 33 33 40 36 44 40 35 37 32 20 25
24 22 26 21 21 20 16 16 15 15 16 15 13 11 15 14 12 10 14 14 14 14 13 14 15 16 18 21 29 29 29 26 26 32 39 39 38 36 31 31 23 24 17
20 26 28 24 25 22 18 17 16 15 17 18 14 13 16 16 12 11 10 14 16 16 14 12 12 15 21 24 31 31 29 31 30 26 28 30 30 27 23 27 25 22 20
22 22 25 27 28 22 19 16 18 18 19 19 17 15 15 12 13 10 12 13 15 18 18 15 14 14 17 25 30 30 30 37 31 31 28 27 24 27 26 17 21 27 25
26 24 27 31 28 23 22 17 20 20 20 20 20 17 13 11 10 11 12 13 17 19 17 16 13 13 19 22 25 29 31 33 32 27 22 24 24 27 25 20 20 6 19
29 30 32 31 28 24 23 23 21 20 22 19 17 18 15 12 12 14 14 16 19 18 19 17 17 18 19 17 21 26 31 29 25 21 21 23 23 25 27 16 10 7 10
31 33 32 32 29 25 24 24 23 23 22 18 18 19 18 15 15 17 14 17 20 17 18 17 17 18 17 24 25 29 26 25 24 21 20 19 19 18 22 19 16 12 10
32 31 30 30 29 27 25 24 25 24 29 25 23 25 25 21 21 23 20 22 19 17 19 18 16 20 21 25 27 23 24 23 25 25 26 23 22 20 22 23 21 18 13
28 28 27 28 27 27 25 19 19 25 24 24 24 25 25 22 24 26 20 17 18 20 22 19 18 21 26 26 26 21 23 27 28 29 28 24 25 26 26 27 24 21 21
29 28 29 28 28 24 26 21 17 15 24 26 25 23 22 26 26 27 23 20 19 20 22 18 18 21 27 28 26 22 16 28 27 28 29 29 28 28 28 28 25 22 21
33 35 30 28 28 27 26 25 25 23 18 17 28 27 22 25 28 28 28 24 23 25 21 22 21 23 26 27 26 21 18 24 25 28 33 32 31 30 29 28 28 26 25
34 33 30 28 30 29 28 27 27 25 24 22 20 27 28 28 29 32 32 30 27 29 29 24 23 24 29 29 30 29 27 26 27 27 28 31 31 29 28 29 30 30 28
33 33 30 29 29 31 28 27 25 25 23 27 28 28 26 30 37 38 37 32 29 28 30 31 28 24 25 30 33 33 32 32 32 33 35 33 33 33 34 33 32 32 32
32 34 36 31 26 30 28 27 26 26 26 24 31 34 33 34 33 36 37 34 30 30 32 35 35 31 26 27 31 34 34 34 37 39 40 38 36 36 36 35 33 33 34
34 33 37 30 28 27 28 30 32 30 28 27 26 34 37 38 38 37 38 39 40 35 31 33 35 37 37 33 25 40 38 37 35 35 36 39 40 38 35 35 35 34 31
31 33 33 31 29 29 30 32 31 33 30 30 29 32 41 37 34 35 38 41 41 41 42 34 34 36 34 33 33 28 37 39 36 36 36 36 38 39 38 37 35 33 32
23 32 32 31 30 28 31 30 32 33 35 32 33 35 42 42 37 38 41 42 43 44 44 47 43 39 33 32 35 34 35 33 32 35 34 36 37 38 39 39 39 35 33
14 17 29 29 29 29 27 26 29 34 35 35 33 36 40 42 40 39 40 41 42 42 42 43 45 48 47 42 40 29 29 33 36 38 35 36 36 37 40 40 39 36 34
11 11 12 23 31 31 29 29 29 32 34 33 36 36 38 40 41 41 41 41 40 41 41 41 40 39 38 36 39 46 42 34 29 34 37 39 36 33 35 39 39 38 36
Wind_Direction
157 174 179 170 162 162 143 158 157 155 160 157 164 171 168 168 174 166 164 171 163 163 174 164 217 154 161 165 199 191 174 139 121 109 130 129 138 143 136 145 151 151 148
165 176 168 165 157 143 148 154 149 154 161 158 155 170 166 168 170 164 163 193 169 162 141 110 101 129 136 130 136 127 132 142 137 131 135 125 131 133 137 133 135 141 147
174 159 152 147 147 142 145 148 145 151 167 167 167 155 146 140 152 155 155 172 156 140 132 138 133 125 128 130 128 125 129 141 136 138 136 127 130 135 130 132 131 141 146
170 151 157 139 149 156 149 145 138 146 156 161 163 160 158 154 141 144 135 128 126 122 120 152 136 125 129 125 128 135 140 135 143 140 141 136 133 135 132 131 126 131 128
163 158 143 142 151 157 153 144 138 134 140 172 157 135 146 136 129 129 126 109 103 104 82 84 141 143 155 159 169 159 149 136 139 138 136 136 132 134 132 129 122 124 133
162 156 149 151 166 161 157 149 138 129 136 146 127 126 127 123 125 128 118 110 115 99 96 89 89 96 193 184 151 157 157 139 140 136 133 131 122 123 129 128 126 130 124
163 159 159 149 169 157 148 143 141 136 136 138 134 133 130 122 121 120 121 118 106 121 127 126 109 112 127 133 140 148 136 134 136 136 131 133 130 136 139 140 142 142 145
170 165 167 166 157 157 152 151 150 144 143 139 133 133 133 129 119 117 128 122 115 108 121 126 119 127 134 133 141 141 139 137 138 140 146 145 149 154 154 156 154 146 147
175 174 173 163 158 150 153 155 153 152 145 141 146 135 134 128 130 131 133 129 118 113 120 130 129 136 145 140 133 126 128 140 152 150 154 156 157 160 163 155 144 136 142
193 164 177 163 160 151 151 156 155 145 141 142 131 140 136 136 135 133 135 129 116 108 106 118 143 147 157 157 144 136 131 144 150 151 154 158 164 169 163 159 153 147 147
181 174 168 157 155 150 148 153 157 149 148 144 143 147 144 141 140 131 135 142 138 122 122 121 123 137 157 159 156 149 149 156 153 158 157 158 159 162 157 158 171 169 167
173 171 157 153 150 149 148 149 152 155 155 149 149 148 150 147 142 143 146 156 152 132 131 128 127 143 148 153 159 160 159 162 165 159 142 151 164 174 171 166 167 200 216
169 154 153 155 157 153 148 149 153 162 157 151 148 149 148 148 141 138 138 147 151 134 134 127 123 129 141 141 148 154 157 157 158 154 156 169 179 182 185 185 201 205 206
167 157 155 158 160 159 160 159 156 160 160 162 159 161 161 162 153 150 127 148 150 140 140 134 128 137 141 143 146 151 155 159 161 167 167 173 180 188 193 199 204 200 192
166 157 158 160 162 168 171 174 173 174 174 174 179 172 167 175 175 166 152 153 156 155 147 143 136 137 140 149 151 153 168 166 168 170 176 187 194 194 198 205 213 207 202
158 163 155 163 167 173 177 189 197 193 193 192 188 186 184 180 173 172 164 163 164 159 154 154 156 160 165 167 173 174 173 183 182 185 186 193 199 202 203 204 214 217 219
165 169 170 165 173 177 181 172 156 165 190 190 197 195 190 182 179 178 175 169 173 169 171 172 171 176 182 185 188 189 205 195 194 198 201 203 204 204 204 208 214 223 226
170 173 174 179 181 179 181 181 170 159 158 157 184 197 192 185 185 181 179 182 188 191 191 194 194 190 189 196 202 205 192 183 191 204 209 209 206 207 209 215 217 220 224
175 175 178 180 188 195 185 184 186 177 173 171 170 186 193 193 192 189 189 192 196 200 207 213 214 207 206 204 208 213 212 211 208 202 201 205 211 214 219 222 224 229 229
181 184 182 186 186 194 197 192 184 185 180 181 183 185 189 195 191 195 197 200 205 208 212 219 222 227 225 220 219 217 217 217 216 215 219 221 223 222 224 226 227 228 228
183 185 188 193 191 194 200 195 202 186 189 185 194 196 193 190 190 197 203 208 211 214 219 222 226 227 231 235 236 222 217 217 220 222 221 221 223 223 226 228 230 229 231
180 185 189 193 196 196 200 201 199 204 190 192 193 203 202 195 196 202 208 212 215 217 221 226 229 233 234 234 241 225 225 226 226 223 224 225 226 227 226 227 231 234 232
180 183 189 196 200 202 202 204 203 205 203 194 192 193 200 200 204 206 211 217 219 221 218 220 229 233 237 240 242 241 230 228 230 232 233 231 231 231 231 231 232 232 229
200 187 187 193 199 207 209 200 207 208 209 207 195 196 199 203 206 211 217 221 224 226 228 226 226 229 230 235 240 241 240 243 241 239 238 238 232 230 229 231 233 235 236
359 204 192 195 201 206 214 212 205 208 208 211 212 207 204 206 209 212 216 219 223 226 231 233 234 234 235 237 239 240 244 246 244 241 239 239 240 238 234 232 231 232 232
11 8 1 207 199 207 211 217 211 208 208 209 213 217 215 210 212 214 216 218 220 224 229 234 235 235 236 237 238 238 239 241 243 243 241 239 239 240 237 234 232 231 227